COSMOS 2491 DEB, 57550

Orbit data source: Space-Track

COSMOS 2491 DEB, 57550 is space debris in LEO originally from a launch on Wed, 25 Dec 2013 UTC launched from the Plesetsk Missile And Space Complex (PKMTR). Debris objects in space refer to the collection of defunct objects orbiting the Earth. Examples of debris include non-operational satellites, rocket bodies, and fragments generated from explosions, collisions, or faulty payload assembly.

Loading next visibility...
Identifier
57550, 2013-076AM
Orbit
LEO
Country
Flag of CISCIS
Related business
Manufacturer
TsNIIKhM
Mission
Spacecraft
Bus & Motor
Unknown
Mass
Unknown
Launch date (UTC)
2013-12-25 (12 years ago)
Launch vehicle
Unknown
Launch site
Plesetsk Missile And Space Complex (PKMTR)
Object type
Payload
Rocket body
Debris
Shape & HBR
Unknown shape, 0.1 m
Radar Cross Section
Small (<0.1 m²)

Expand to show TLE details & history
Last TLE update: 1 day ago

TLE from 1 day ago
0 COSMOS 2491 DEB
1 57550U 13076AM  26034.70432780  .00002623  00000-0  12138-1 0  9994
2 57550  82.4727 186.1511 0103733  54.3832 306.6875 12.74376423127081
Epoch: 2026-02-03T16:54Z
TLE epoch observation values (Epoch: 2026-02-03T16:54:13.921Z)
Latitude
-0.00005°
Longitude
158.71165°
Altitude
1,319.457 km
Speed
7.219 km/s
True Right ascension
12h 24m 36s
True Declination
0° 00' 00"
Sunlit
Object was in full shadow at epoch
Visualization orbit readout
Latitude
Unknown
Longitude
Unknown
Altitude
Unknown
Speed
Unknown
Apparent Right ascension
Unknown
Apparent Declination
Unknown
Sunlit
N/A
Visualization observer readout
Local Sidereal Time
04:37:54
Azimuth
Unknown
Elevation
Unknown
Doppler factor
Unknown
Orbital elements
Apogee altitude
1,441.756 km
Perigee altitude
1,281.185 km
Semi-major axis
7,739.608 km
Eccentricity
0.01037
Inclination
82.4727°
RAAN
186.1511°
Arg. of periapsis
54.3832°
True anomaly
305.72689°
Mean anomaly
306.6875°
Eccentric anomaly
306.20793°
Mean motion
3.18761 °/min
Orbital period
112.94 mins
BSTAR
0.012138
Loading maneuver chart data...
Computing Atmospheric mass density...
Loading historical data...
Loading historical data...
Loading historical data...
Loading historical data...
Loading historical data...
Loading historical data...
Loading historical data...

Documentation

Showing up to 5 results
|